[[{"header":{"parameterUnit":"m.s-1","parameterCategory":1,"la1":30.2991,"la2":30.254,"lo1":-89.0895,"lo2":-89.0444,"dy":0.0017,"dx":0.0017,"nx":28,"ny":28,"refTime":"2025-11-12T09:00:00:Z","depth":0,"parameterNumber":2,"parameterNumberName":"U-component_of_WINDS"},"data":[0,0,0,0,0,0,0,0,0,0,0,0,0,0,0,0,0,0,0,0,0,0,0,0,0,0,0,0,0,0,0,0,0,0,0,0,0,0,0,0,0,0,0,0,0,0,0,0,0,0,0,0,0,0,0,0,0,0,0.0884,0.0884,0,0.0883,0.0883,0.0883,0.0835,0.0833,0.0832,0.0831,0.0829,0.083,0.0831,0,0,0,0,0,0,0,0,0,0,0,0,0,0.0844,0.0845,0.0884,0.0884,0.0884,0.0883,0.0883,0.0883,0.0835,0.0833,0.0832,0.083,0.0829,0.083,0.0831,0,0,0,0,0,0,0,0,0,0,0,0,0,0.0854,0.0845,0.0884,0.086,0.0858,0.0883,0.0883,0.0883,0.0835,0.0833,0.0832,0.083,0.0828,0.083,0.0832,0.088,0,0,0.0837,0.0837,0,0,0,0,0,0,0,0,0.0853,0.0856,0.0864,0.0862,0.0859,0.0857,0.0868,0.0882,0.0836,0.0844,0.0831,0.0829,0.084,0.0841,0.0844,0.088,0.0879,0.0837,0.0838,0.0839,0.0839,0,0,0,0,0,0,0,0.0853,0.0855,0.0884,0.0864,0.0861,0.0849,0.0848,0.0871,0.0852,0.0843,0.0839,0.084,0.0838,0.0843,0.0844,0.0879,0.0837,0.0838,0.0839,0.084,0.0954,0.0956,0,0,0,0,0,0,0.0856,0.0855,0.0884,0.0884,0.0852,0.0851,0.0851,0.086,0.0852,0.0849,0.0842,0.0838,0.0841,0.0842,0.0844,0.09,0.0839,0.084,0.0841,0.0952,0.0955,0.0957,0,0,0,0,0,0,0.0855,0.0859,0.0884,0.0868,0.0871,0.0854,0.0865,0.0861,0.0865,0.0851,0.0848,0.085,0.084,0.0841,0.0871,0.0899,0.0841,0.0842,0.095,0.0953,0.0956,0.1013,0,0,0,0,0,0,0.0854,0.0859,0.0877,0.0869,0.0872,0.0912,0.0866,0.0862,0.0868,0.0863,0.0858,0.0855,0.0838,0.0869,0.0873,0.09,0.0844,0.0947,0.0951,0.0955,0.1008,0.1017,0.1025,0,0,0,0,0,0.0853,0.0893,0.0878,0.0882,0.0894,0.0913,0.0915,0.0895,0.0871,0.0889,0.088,0.0855,0.0896,0.0873,0.0876,0.0905,0.0946,0.095,0.0955,0.1004,0.1016,0.1025,0,0,0,0,0,0,0.0903,0.0891,0.0875,0.0913,0.0915,0.0905,0.0927,0.0907,0.0915,0.091,0.0885,0.0884,0.0918,0.0914,0.0889,0.0951,0.0916,0.0922,0.0953,0.0963,0.0971,0.0972,0.0845,0,0,0,0,0,0.0919,0.0936,0.0924,0.0959,0.0961,0.0944,0.0952,0.0937,0.0937,0.0937,0.093,0.0931,0.0944,0.0953,0.0964,0.1007,0.1006,0.1029,0.1037,0.1044,0.105,0.1073,0.1083,0.0972,0.0972,0.0972,0,0,0.0952,0.0947,0.0959,0.0969,0.0969,0.0987,0.0945,0.0966,0.0979,0.094,0.0968,0.0963,0.0963,0.1,0.1016,0.0998,0.108,0.105,0.1056,0.1057,0.1078,0.1089,0.1098,0.0975,0.0975,0.0974,0,0,0.102,0.1018,0.1048,0.1048,0.1048,0.1037,0.1044,0.1037,0.1033,0.1061,0.1032,0.1047,0.107,0.1071,0.1075,0.1144,0.1122,0.1149,0.1193,0.1215,0.1224,0.1232,0.1257,0.1266,0.1154,0.1154,0.1154,0,0.106,0.1087,0.1065,0.1088,0.1094,0.106,0.109,0.1091,0.1094,0.1099,0.1079,0.1107,0.1104,0.1141,0.1159,0.1162,0.117,0.1149,0.1225,0.1232,0.1239,0.1263,0.1272,0.1157,0.1157,0.1157,0.1156,0,0.1137,0.1155,0.1179,0.1184,0.1192,0.1218,0.1201,0.1211,0.1196,0.1187,0.1216,0.1211,0.1221,0.1229,0.1213,0.1264,0.1253,0.1229,0.1193,0.1253,0.1275,0.1284,0.1162,0.1161,0.116,0.1159,0,0,0.1237,0.123,0.1239,0.1241,0.1239,0.1253,0.1277,0.1288,0.1298,0.1301,0.1321,0.1342,0.132,0.1324,0.1308,0.1328,0.1385,0.1302,0.1302,0.1318,0.1441,0.1459,0.147,0.137,0.1371,0.1373,0.1441,0,0.1304,0.1346,0.1328,0.1372,0.1389,0.1358,0.1379,0.138,0.1372,0.1386,0.1377,0.1392,0.1362,0.1364,0.1383,0.1374,0.1409,0.1369,0.1389,0.139,0.139,0.1481,0.15,0.1565,0.1449,0.1451,0.1452,0,0.1387,0.1395,0.1441,0.1436,0.1443,0.1463,0.1471,0.1484,0.1484,0.1477,0.1482,0.1462,0.1486,0.1451,0.1483,0.1457,0.1463,0.1461,0.1463,0.1464,0.1425,0.1485,0.1585,0.1595,0.1465,0.1464,0.1463,0,0.1456,0.1478,0.1509,0.1511,0.1506,0.1521,0.152,0.1518,0.1526,0.1533,0.1538,0.1547,0.1553,0.156,0.1544,0.1519,0.1579,0.1542,0.1574,0.1574,0.1588,0.1587,0.169,0.1592,0.1592,0.1592,0.1592,0,0.1533,0.1563,0.154,0.1559,0.1591,0.157,0.1602,0.1597,0.1596,0.1614,0.1587,0.1603,0.158,0.1594,0.1581,0.1611,0.1613,0.1608,0.1605,0.1611,0.1612,0.1615,0.161,0.1594,0.1594,0.1593,0.1593,0,0.1616,0.1602,0.1633,0.1626,0.1625,0.1649,0.1643,0.166,0.1651,0.1673,0.1677,0.1662,0.1678,0.1662,0.1676,0.1668,0.1707,0.1697,0.1707,0.1705,0.1738,0.1735,0.1847,0.1861,0.1753,0.1755,0.1755,0,0.1666,0.1688,0.1684,0.1694,0.1694,0.171,0.1718,0.1698,0.1707,0.171,0.1727,0.174,0.175,0.1776,0.1767,0.1778,0.1768,0.1806,0.1769,0.1775,0.1769,0.1768,0.177,0.1814,0.1815,0.1816,0.1817,0,0.1756,0.1748,0.1761,0.1771,0.1782,0.1789,0.1793,0.1803,0.1782,0.1794,0.181,0.1818,0.1833,0.1847,0.1855,0.1853,0.1832,0.1829,0.1837,0.1844,0.1849,0.1847,0.1728,0.1826,0.1825,0.1825,0.1824,0.1824,0.1824,0.1842,0.1843,0.1858,0.1859,0.1865,0.1881,0.1874,0.1887,0.1898,0.1886,0.1905,0.1906,0.1915,0.1916,0.1931,0.1914,0.1926,0.1929,0.1932,0.1937,0.1847,0.1932,0.1932,0.1932,0.1931,0.1931,0,0.1913,0.1912,0.1926,0.1934,0.1946,0.1926,0.193,0.1941,0.1959,0.1962,0.1972,0.1991,0.2004,0.1996,0.2008,0.2022,0.2012,0.2025,0.2024,0.2024,0.1951,0.1943,0.2033,0.2033,0.2033,0.2033,0.2033,0.2033,0.1961,0.1992,0.1984,0.2015,0.2013,0.2033,0.2038,0.2043,0.2044,0.2067,0.2078,0.2073,0.2071,0.2082,0.2094,0.2091,0.2097,0.2114,0.2108,0.2039,0.2029,0.202,0.2012,0.2115,0.2115,0.218,0.218,0.2181]},{"header":{"parameterUnit":"m.s-1","parameterCategory":1,"la1":30.2991,"la2":30.254,"lo1":-89.0895,"lo2":-89.0444,"dy":0.0017,"dx":0.0017,"nx":28,"ny":28,"refTime":"2025-11-12T09:00:00:Z","depth":0,"parameterNumber":3,"parameterNumberName":"V-component_of_WINDS"},"data":[0,0,0,0,0,0,0,0,0,0,0,0,0,0,0,0,0,0,0,0,0,0,0,0,0,0,0,0,0,0,0,0,0,0,0,0,0,0,0,0,0,0,0,0,0,0,0,0,0,0,0,0,0,0,0,0,0,0,0.9209,0.9209,0,0.918,0.9179,0.9179,0.9077,0.9075,0.9073,0.9071,0.9045,0.9046,0.9048,0,0,0,0,0,0,0,0,0,0,0,0,0,0.9181,0.9182,0.9209,0.9209,0.9209,0.918,0.9179,0.9179,0.9078,0.9075,0.9072,0.9069,0.9044,0.9046,0.9048,0,0,0,0,0,0,0,0,0,0,0,0,0,0.9177,0.9183,0.9209,0.9154,0.9149,0.918,0.9179,0.9179,0.9078,0.9075,0.9071,0.9068,0.9044,0.9046,0.9048,0.9131,0,0,0.9055,0.9056,0,0,0,0,0,0,0,0,0.9177,0.9178,0.9163,0.9158,0.9152,0.9129,0.916,0.9163,0.9079,0.9105,0.907,0.9066,0.9076,0.9075,0.9077,0.913,0.9128,0.9055,0.9056,0.9057,0.9058,0,0,0,0,0,0,0,0.9178,0.9179,0.9198,0.9163,0.9157,0.9132,0.9128,0.916,0.9111,0.9103,0.9095,0.9093,0.9072,0.9075,0.9076,0.9128,0.9055,0.9057,0.9058,0.9059,0.9246,0.925,0,0,0,0,0,0,0.9185,0.918,0.9199,0.9197,0.9156,0.9136,0.9131,0.914,0.911,0.9102,0.9096,0.9088,0.9073,0.9074,0.9075,0.917,0.9057,0.9059,0.906,0.9242,0.9247,0.9251,0,0,0,0,0,0,0.9185,0.9188,0.92,0.9186,0.9186,0.914,0.9151,0.9141,0.9144,0.9105,0.9096,0.9108,0.9071,0.9072,0.9117,0.9167,0.906,0.9062,0.9238,0.9244,0.9249,0.9361,0,0,0,0,0,0,0.9185,0.9188,0.9219,0.9188,0.9187,0.9243,0.9154,0.9143,0.9148,0.9137,0.9114,0.9106,0.9068,0.9114,0.9119,0.9168,0.9064,0.9233,0.9241,0.9247,0.9352,0.9369,0.9384,0,0,0,0,0,0.9184,0.9253,0.9221,0.9224,0.9224,0.9246,0.9245,0.9198,0.9152,0.9183,0.9157,0.9107,0.916,0.912,0.9125,0.9175,0.923,0.9239,0.9247,0.9345,0.9366,0.9383,0,0,0,0,0,0,0.9294,0.9248,0.9212,0.9272,0.9263,0.9228,0.9266,0.9222,0.9227,0.9218,0.916,0.9156,0.921,0.9196,0.9152,0.9253,0.9187,0.9197,0.926,0.928,0.9295,0.9298,0.9066,0,0,0,0,0,0.9324,0.9344,0.9304,0.9361,0.9358,0.9313,0.9321,0.9285,0.9274,0.927,0.9248,0.924,0.9255,0.9266,0.9278,0.9349,0.9343,0.9386,0.9402,0.9415,0.9424,0.9461,0.948,0.9278,0.9278,0.9278,0,0,0.9389,0.9366,0.9383,0.9382,0.9371,0.9394,0.931,0.9339,0.9356,0.9275,0.9316,0.9299,0.9287,0.9346,0.9371,0.9337,0.9478,0.9425,0.9436,0.9438,0.9471,0.9491,0.9508,0.9283,0.9282,0.9281,0,0,0.9519,0.9503,0.9549,0.9539,0.9522,0.9491,0.9502,0.9473,0.9458,0.9498,0.9438,0.9457,0.9484,0.9478,0.9478,0.9603,0.9558,0.9608,0.9692,0.9728,0.9744,0.9758,0.9803,0.982,0.9618,0.9618,0.9618,0,0.9602,0.9633,0.9579,0.961,0.9612,0.9537,0.9584,0.9577,0.9566,0.9569,0.953,0.9561,0.9548,0.9604,0.9634,0.9637,0.9648,0.9612,0.9746,0.9759,0.9771,0.9814,0.9831,0.9624,0.9624,0.9623,0.9622,0,0.9736,0.9759,0.9798,0.9787,0.9793,0.9832,0.9784,0.9797,0.976,0.9733,0.9775,0.9756,0.9762,0.9772,0.9737,0.9823,0.9802,0.9756,0.9688,0.9798,0.9837,0.9853,0.9633,0.9631,0.9629,0.9628,0,0,0.9937,0.9893,0.9909,0.9902,0.9877,0.9894,0.993,0.9934,0.9946,0.994,0.997,0.9993,0.9948,0.9949,0.9912,0.9944,1.0045,0.9893,0.9892,0.9923,1.0139,1.0176,1.0196,1.0014,1.0016,1.0019,1.0141,0,1.0061,1.0118,1.0069,1.0136,1.0157,1.0085,1.0116,1.0104,1.008,1.0094,1.0067,1.0085,1.0025,1.0025,1.0053,1.0027,1.0088,1.0017,1.0042,1.0043,1.0049,1.0216,1.0255,1.0371,1.0156,1.0158,1.016,0,1.0214,1.0213,1.0282,1.0251,1.0258,1.0287,1.0286,1.03,1.0286,1.0265,1.0265,1.0219,1.0252,1.0185,1.023,1.0183,1.019,1.0178,1.0182,1.0184,1.011,1.0224,1.0407,1.0425,1.0183,1.0182,1.018,0,1.0355,1.0371,1.0414,1.0411,1.0376,1.0397,1.0384,1.0366,1.0371,1.037,1.0373,1.0377,1.038,1.0385,1.0341,1.0296,1.0393,1.0322,1.0379,1.038,1.0404,1.0404,1.0593,1.0406,1.0406,1.0405,1.0405,0,1.05,1.0546,1.0476,1.0503,1.0552,1.0494,1.0544,1.0524,1.0507,1.053,1.0467,1.049,1.043,1.0446,1.0412,1.0456,1.0457,1.0443,1.0434,1.0449,1.0452,1.0455,1.0446,1.041,1.0409,1.0408,1.0407,0,1.0667,1.0622,1.0664,1.0627,1.0618,1.0656,1.0624,1.0648,1.0618,1.0646,1.065,1.0604,1.062,1.0576,1.0586,1.0563,1.0626,1.0603,1.0631,1.0624,1.0684,1.068,1.0883,1.0907,1.0704,1.0706,1.0708,0,1.0763,1.0796,1.0761,1.077,1.076,1.0776,1.078,1.0725,1.0732,1.0717,1.0743,1.0752,1.0758,1.0786,1.0755,1.0761,1.0739,1.0809,1.074,1.0754,1.0741,1.0741,1.0744,1.0825,1.0827,1.0829,1.0831,0,1.0939,1.0915,1.0923,1.0923,1.0929,1.0927,1.0921,1.0932,1.0873,1.0884,1.0898,1.0902,1.091,1.0922,1.0921,1.0908,1.0861,1.0853,1.0866,1.0884,1.0899,1.0893,1.0672,1.0849,1.0847,1.0846,1.0845,1.0844,1.1075,1.11,1.1079,1.1089,1.1078,1.1073,1.1093,1.1065,1.1075,1.1077,1.1043,1.1064,1.1048,1.1042,1.1033,1.105,1.1017,1.1037,1.1043,1.1049,1.1059,1.0895,1.1049,1.1049,1.1048,1.1048,1.1047,0,1.1248,1.123,1.124,1.1232,1.1241,1.1192,1.1182,1.1193,1.1212,1.1199,1.1205,1.1221,1.1231,1.1199,1.1205,1.1224,1.1202,1.1227,1.1226,1.1224,1.1087,1.1075,1.1245,1.1245,1.1245,1.1245,1.1245,1.1245,1.134,1.138,1.1353,1.1387,1.1369,1.1388,1.1387,1.1382,1.1372,1.1392,1.1399,1.1377,1.1357,1.136,1.1368,1.1358,1.1364,1.1397,1.138,1.1253,1.1234,1.1216,1.1204,1.1398,1.1398,1.1515,1.1517,1.1517]}]]